SWR4WF LSZH-LKPR

Flight info

Callsign SWR4WF
Flight time N/A
Altitude 41000
Route DEGES Z2 XEBIX N871 NENUM Z39 DOLUP DCT APRAQ
Aircraft A359/H-SDE2E3GHIJ3J4J5LM1ORWXY/LB1D1

Departure

Time N/A
Airport Zürich Airport (LSZH)

Arrival

Time 2026-05-04 19:49
Airport Václav Havel Airport Prague (LKPR)
Time Latitude Longitude Altitude Speed Heading
2026-05-04 19:21 48.25134 12.58924 40905 ft 503 kts 37°
2026-05-04 19:22 48.30738 12.65214 40901 ft 502 kts 34°
2026-05-04 19:22 48.36407 12.71363 40899 ft 502 kts 34°
2026-05-04 19:23 48.41809 12.77937 40898 ft 503 kts 40°
2026-05-04 19:23 48.46988 12.85053 40875 ft 504 kts 41°
2026-05-04 19:23 48.49542 12.88635 40695 ft 498 kts 42°
2026-05-04 19:24 48.52065 12.92161 40259 ft 493 kts 40°
2026-05-04 19:24 48.54794 12.95317 39397 ft 497 kts 31°
2026-05-04 19:24 48.57547 12.97905 38640 ft 500 kts 29°
2026-05-04 19:24 48.60592 13.00611 37768 ft 502 kts 28°
2026-05-04 19:25 48.63620 13.03224 37070 ft 500 kts 28°
2026-05-04 19:25 48.66640 13.05799 36407 ft 497 kts 28°
2026-05-04 19:25 48.69651 13.08362 35746 ft 496 kts 28°
2026-05-04 19:25 48.72655 13.10925 35046 ft 496 kts 28°
2026-05-04 19:26 48.75658 13.13503 34426 ft 494 kts 29°
2026-05-04 19:26 48.78637 13.16073 33912 ft 490 kts 29°
2026-05-04 19:26 48.81592 13.18634 33336 ft 486 kts 29°
2026-05-04 19:26 48.84517 13.21175 32812 ft 482 kts 29°
2026-05-04 19:27 48.87430 13.23630 32299 ft 476 kts 25°
2026-05-04 19:27 48.90427 13.25704 31767 ft 471 kts 22°
2026-05-04 19:27 48.93385 13.27651 31287 ft 467 kts 22°
2026-05-04 19:27 48.96361 13.29563 30800 ft 463 kts 21°
2026-05-04 19:28 48.99298 13.31427 30310 ft 459 kts 21°
2026-05-04 19:28 49.02246 13.33293 29789 ft 456 kts 21°
2026-05-04 19:28 49.05169 13.35144 29251 ft 451 kts 21°
2026-05-04 19:28 49.08045 13.36971 28768 ft 446 kts 21°
2026-05-04 19:29 49.10857 13.38917 28292 ft 442 kts 28°
2026-05-04 19:29 49.13363 13.41600 27804 ft 439 kts 39°
2026-05-04 19:29 49.15680 13.44611 27316 ft 435 kts 40°
2026-05-04 19:29 49.17943 13.47648 26827 ft 431 kts 40°
2026-05-04 19:30 49.20183 13.50679 26340 ft 428 kts 40°
2026-05-04 19:30 49.22409 13.53703 25855 ft 425 kts 40°
2026-05-04 19:30 49.24611 13.56703 25371 ft 422 kts 40°
2026-05-04 19:30 49.26794 13.59683 24886 ft 419 kts 40°
2026-05-04 19:31 49.28915 13.62581 24419 ft 416 kts 40°
2026-05-04 19:31 49.31104 13.65578 23905 ft 414 kts 40°
2026-05-04 19:31 49.33244 13.68511 23405 ft 411 kts 40°
2026-05-04 19:31 49.35366 13.71424 22855 ft 408 kts 40°
2026-05-04 19:32 49.37468 13.74312 22384 ft 404 kts 40°
2026-05-04 19:32 49.39523 13.77139 21911 ft 400 kts 41°
2026-05-04 19:32 49.41580 13.79972 21416 ft 396 kts 41°
2026-05-04 19:32 49.43620 13.82786 20940 ft 392 kts 41°
2026-05-04 19:33 49.45639 13.85572 20477 ft 389 kts 41°
2026-05-04 19:33 49.47641 13.88339 19989 ft 386 kts 41°
2026-05-04 19:33 49.49628 13.91090 19518 ft 383 kts 41°
2026-05-04 19:33 49.51598 13.93819 19058 ft 380 kts 41°
2026-05-04 19:34 49.53559 13.96538 18591 ft 378 kts 41°
2026-05-04 19:34 49.55506 13.99242 18112 ft 376 kts 41°
2026-05-04 19:34 49.57445 14.01936 17623 ft 373 kts 41°
2026-05-04 19:34 49.59411 14.04482 17241 ft 366 kts 34°
2026-05-04 19:35 49.61652 14.06350 16375 ft 371 kts 18°
2026-05-04 19:35 49.64198 14.07008 15462 ft 376 kts 356°
2026-05-04 19:35 49.66831 14.06713 14619 ft 381 kts 351°
2026-05-04 19:35 49.69460 14.06233 14055 ft 379 kts 350°
2026-05-04 19:36 49.72070 14.05745 13570 ft 375 kts 350°
2026-05-04 19:36 49.74611 14.05271 13071 ft 369 kts 350°
2026-05-04 19:36 49.77143 14.04802 12601 ft 363 kts 350°
2026-05-04 19:36 49.79638 14.04341 12153 ft 357 kts 350°
2026-05-04 19:37 49.82082 14.03890 11709 ft 351 kts 351°
2026-05-04 19:37 49.84488 14.03445 11256 ft 345 kts 351°
2026-05-04 19:37 49.86859 14.03007 10825 ft 340 kts 351°
2026-05-04 19:37 49.89170 14.02580 10593 ft 328 kts 351°
2026-05-04 19:38 49.91385 14.02173 10471 ft 313 kts 351°
2026-05-04 19:38 49.93503 14.01783 10346 ft 300 kts 350°
2026-05-04 19:38 49.95549 14.01404 10093 ft 293 kts 350°
2026-05-04 19:38 49.97555 14.01030 9790 ft 291 kts 351°
2026-05-04 19:39 49.99585 14.00649 9448 ft 295 kts 351°
2026-05-04 19:39 50.01621 14.00268 9123 ft 294 kts 351°
2026-05-04 19:39 50.03591 13.99506 8825 ft 290 kts 333°
2026-05-04 19:39 50.05336 13.98016 8574 ft 285 kts 326°
2026-05-04 19:40 50.07006 13.96367 8317 ft 284 kts 325°
2026-05-04 19:40 50.08661 13.94694 8031 ft 283 kts 325°
2026-05-04 19:40 50.10297 13.93023 7705 ft 282 kts 325°
2026-05-04 19:40 50.11910 13.91359 7400 ft 282 kts 325°
2026-05-04 19:41 50.13536 13.89665 7073 ft 279 kts 325°
2026-05-04 19:41 50.15128 13.87990 6775 ft 273 kts 325°
2026-05-04 19:41 50.16688 13.86332 6433 ft 270 kts 325°
2026-05-04 19:41 50.18223 13.84689 6173 ft 264 kts 325°
2026-05-04 19:42 50.19767 13.83200 5893 ft 258 kts 336°
2026-05-04 19:42 50.21489 13.82788 5706 ft 248 kts
2026-05-04 19:42 50.23051 13.83723 5553 ft 243 kts 37°
2026-05-04 19:42 50.24098 13.85737 5388 ft 239 kts 68°
2026-05-04 19:43 50.24351 13.88261 5264 ft 236 kts 95°
2026-05-04 19:43 50.24115 13.90803 5115 ft 237 kts 103°
2026-05-04 19:43 50.23735 13.93296 4963 ft 236 kts 104°
2026-05-04 19:43 50.23334 13.95787 4817 ft 236 kts 105°
2026-05-04 19:44 50.22930 13.98264 4662 ft 235 kts 105°
2026-05-04 19:44 50.22297 14.00592 4507 ft 229 kts 121°
2026-05-04 19:44 50.21390 14.02577 4334 ft 220 kts 128°
2026-05-04 19:44 50.20479 14.04407 4196 ft 212 kts 127°
2026-05-04 19:45 50.19587 14.06255 4035 ft 210 kts 126°
2026-05-04 19:45 50.18723 14.08085 3783 ft 209 kts 126°
2026-05-04 19:45 50.17858 14.09890 3490 ft 207 kts 127°
2026-05-04 19:45 50.17006 14.11653 3233 ft 204 kts 126°
2026-05-04 19:46 50.16170 14.13392 2959 ft 194 kts 126°
2026-05-04 19:46 50.15390 14.15015 2713 ft 180 kts 126°
2026-05-04 19:46 50.14664 14.16521 2493 ft 169 kts 125°
2026-05-04 19:46 50.13988 14.17927 2269 ft 158 kts 125°
2026-05-04 19:47 50.13347 14.19257 2056 ft 149 kts 125°
2026-05-04 19:47 50.12736 14.20519 1820 ft 143 kts 126°
2026-05-04 19:47 50.12152 14.21712 1664 ft 134 kts 125°
2026-05-04 19:47 50.11592 14.22883 1457 ft 135 kts 124°
2026-05-04 19:48 50.11030 14.24055 1281 ft 135 kts 125°
2026-05-04 19:48 50.10472 14.25222 1177 ft 129 kts 129°
2026-05-04 19:48 50.10004 14.26184 1201 ft 94 kts 128°
2026-05-04 19:48 50.09682 14.26854 1214 ft 60 kts 127°
2026-05-04 19:49 50.09494 14.27241 1211 ft 36 kts 127°
2026-05-04 19:49 50.09424 14.27398 1215 ft 8 kts 106°
2026-05-04 19:49 50.09435 14.27437 1215 ft 4 kts 54°
2026-05-04 19:49 50.09464 14.27475 1216 ft 6 kts 38°
2026-05-04 19:50 50.09500 14.27518 1218 ft 7 kts 37°
2026-05-04 19:50 50.09540 14.27566 1219 ft 9 kts 37°
2026-05-04 19:50 50.09600 14.27631 1217 ft 12 kts 25°
2026-05-04 19:50 50.09683 14.27575 1213 ft 16 kts 313°
2026-05-04 19:51 50.09771 14.27436 1211 ft 20 kts 315°
2026-05-04 19:51 50.09877 14.27267 1208 ft 23 kts 308°
2026-05-04 19:51 50.09982 14.27046 1203 ft 28 kts 307°
2026-05-04 19:51 50.10108 14.26786 1190 ft 34 kts 307°
2026-05-04 19:52 50.10254 14.26484 1178 ft 29 kts 307°
2026-05-04 19:52 50.10368 14.26247 1175 ft 26 kts 306°
2026-05-04 19:52 50.10458 14.26061 1173 ft 18 kts 307°
2026-05-04 19:52 50.10534 14.25902 1174 ft 13 kts 304°
2026-05-04 19:53 50.10572 14.25791 1176 ft 9 kts 274°
2026-05-04 19:53 50.10535 14.25724 1182 ft 7 kts 200°
2026-05-04 19:53 50.10498 14.25752 1185 ft 6 kts 126°
2026-05-04 19:53 50.10498 14.25829 1181 ft 10 kts 82°
2026-05-04 19:54 50.10513 14.25961 1178 ft 14 kts 77°
2026-05-04 19:54 50.10552 14.26119 1175 ft 17 kts 49°
2026-05-04 19:54 50.10612 14.26190 1176 ft 6 kts 34°
2026-05-04 19:54 50.10619 14.26197 1175 ft 0 kts 34°